Waarnemingen

Advertentie
Mijn weer
Kolmaardenstroemsfors, Zweden (2558): temperatuur & dauwpunt: 17.09.2018 03:00:00 - 23.09.2018 03:00:00 (CEST)Kolmaardenstroemsfors, Zweden (2558): windsnelheid & windstoten: 17.09.2018 03:00:00 - 23.09.2018 03:00:00 (CEST)Kolmaardenstroemsfors, Zweden (2558): windrichting: 17.09.2018 03:00:00 - 23.09.2018 03:00:00 (CEST)Kolmaardenstroemsfors, Zweden (2558): luchtdruk: 17.09.2018 03:00:00 - 23.09.2018 03:00:00 (CEST)Kolmaardenstroemsfors, Zweden (2558): zicht: 17.09.2018 03:00:00 - 23.09.2018 03:00:00 (CEST)Kolmaardenstroemsfors, Zweden (2558): neerslag: 17.09.2018 03:00:00 - 23.09.2018 03:00:00 (CEST)
Datum & Tijd tt [°C] td [°C] ff [km/u] ff [kn] fx [km/u] fx [kn] dd ppp [hPa] vv [km] rr [mm]
23.09.2018 03:00:00 8,9 7,0 11 6 23 13 WZW 998,3 33 0,0
23.09.2018 02:00:00 8,0 6,3 8 5 29 15 ZW 998,3 31 0,0
23.09.2018 01:00:00 8,3 5,9 12 6 32 17 ZW 998,5 17 0,0
23.09.2018 00:00:00 8,0 5,3 13 7 38 20 ZW 998,6 24 0,0
22.09.2018 23:00:00 8,8 5,0 14 8 44 24 ZW 998,9 50 0,0
22.09.2018 22:00:00 9,1 4,7 13 7 44 24 WZW 999,2 46 0,0
22.09.2018 21:00:00 9,2 4,2 16 9 41 22 WZW 999,1 50 0,0
22.09.2018 20:00:00 9,1 4,1 17 9 55 30 ZW 998,9 50 0,0
22.09.2018 19:00:00 10,0 3,1 21 11 55 30 WZW 998,7 50 0,0
22.09.2018 18:00:00 - - - - 61 33 - - - -
22.09.2018 17:00:00 12,4 3,6 23 12 61 33 WZW 998,9 41 0,0
22.09.2018 16:00:00 13,3 5,0 22 12 56 31 ZW 998,8 35 0,0
22.09.2018 15:00:00 14,7 3,8 21 11 64 34 WZW 998,5 35 0,0
22.09.2018 14:00:00 14,8 3,0 27 14 64 35 WZW 998,0 38 0,0
22.09.2018 13:00:00 14,3 3,4 27 15 64 35 WZW 997,1 35 0,0
22.09.2018 12:00:00 14,5 3,6 22 12 66 36 W 996,5 31 0,0
22.09.2018 11:00:00 12,8 3,7 30 16 66 36 WZW 995,6 24 0,0
22.09.2018 10:00:00 11,7 4,7 29 16 62 33 WZW 994,6 21 0,0
22.09.2018 09:00:00 11,2 5,5 24 13 61 33 WZW 993,8 20 0,0
22.09.2018 08:00:00 10,7 6,3 20 11 61 33 WZW 992,6 19 0,0
22.09.2018 07:00:00 10,7 5,9 23 13 59 32 WZW 991,4 26 0,0
22.09.2018 06:00:00 10,6 5,4 25 13 61 33 ZW 990,9 30 0,0
22.09.2018 05:00:00 10,4 5,0 23 13 61 33 ZW 990,8 44 0,0
22.09.2018 04:00:00 10,4 4,7 24 13 59 32 ZW 990,8 43 0,0
22.09.2018 03:00:00 10,5 5,3 26 14 59 32 ZW 991,1 49 0,0
22.09.2018 02:00:00 10,8 5,5 21 11 52 28 ZW 991,4 45 0,0
22.09.2018 01:00:00 10,9 5,8 18 10 45 25 ZZW 992,0 29 0,0
22.09.2018 00:00:00 10,5 7,2 14 8 35 19 ZZW 992,3 23 0,0
21.09.2018 23:00:00 10,4 9,2 10 6 26 14 ZZW 992,9 23 0,0
21.09.2018 22:00:00 10,8 9,7 12 7 26 14 Z 993,1 22 0,0
21.09.2018 21:00:00 10,8 10,0 9 5 41 22 Z 993,1 17 0,0
21.09.2018 20:00:00 11,6 10,0 11 6 41 22 ZW 993,3 4,9 0,0
21.09.2018 19:00:00 14,3 13,2 16 8 64 35 WZW 993,4 21 0,0
21.09.2018 18:00:00 14,2 12,6 16 9 64 35 ZW 993,2 11 0,0
21.09.2018 17:00:00 21,6 11,6 20 11 41 22 Z 991,9 36 0,0
21.09.2018 16:00:00 19,8 12,1 10 6 30 16 Z 992,7 33 0,0
21.09.2018 15:00:00 18,1 13,4 11 6 29 16 ZZO 994,3 27 0,0
21.09.2018 14:00:00 17,4 12,9 12 7 29 16 ZO 995,5 29 0,0
21.09.2018 13:00:00 17,7 13,2 10 5 24 13 ZO 997,0 31 0,0
21.09.2018 12:00:00 17,2 13,1 11 6 24 13 ZZO 998,5 33 0,0
21.09.2018 11:00:00 16,4 12,9 13 7 24 13 ZZO 1000,3 26 0,0
21.09.2018 10:00:00 15,7 12,8 12 6 24 13 ZZO 1001,5 25 0,0
21.09.2018 09:00:00 15,3 13,1 9 5 24 13 ZZO 1002,4 22 0,0
21.09.2018 08:00:00 15,1 13,0 9 5 24 13 ZZO 1003,2 23 0,0
21.09.2018 07:00:00 14,2 12,9 9 5 24 13 Z 1003,9 21 0,0
21.09.2018 06:00:00 13,5 12,6 10 6 24 13 Z 1004,5 20 0,0
21.09.2018 05:00:00 13,0 12,1 11 6 24 13 Z 1005,3 32 0,0
21.09.2018 04:00:00 12,1 11,0 9 5 16 9 ZZO 1006,3 43 0,0
21.09.2018 03:00:00 11,8 10,2 7 4 15 8 Z 1007,1 12 0,0
21.09.2018 02:00:00 11,9 9,3 5 3 14 7 Z 1008,1 35 0,0
21.09.2018 01:00:00 11,9 8,2 6 3 14 7 ZZW 1008,8 45 0,0
21.09.2018 00:00:00 11,4 7,7 7 4 17 9 ZW 1009,3 40 0,0
20.09.2018 23:00:00 11,7 7,2 9 5 22 12 ZW 1009,5 40 0,0
20.09.2018 22:00:00 11,7 6,8 10 5 32 17 ZW 1009,4 37 0,0
20.09.2018 21:00:00 12,5 7,2 11 6 42 23 ZW 1009,3 39 0,0
20.09.2018 20:00:00 13,6 7,1 13 7 49 26 WZW 1008,7 37 0,0
20.09.2018 19:00:00 14,6 7,9 19 10 49 26 WZW 1008,3 31 0,0
20.09.2018 18:00:00 15,0 7,5 19 10 47 25 WZW 1007,8 27 0,0
20.09.2018 17:00:00 16,1 7,3 20 11 45 24 WZW 1007,4 37 0,0
20.09.2018 16:00:00 17,0 7,6 18 10 37 20 WZW 1007,3 29 0,0
20.09.2018 15:00:00 16,4 6,5 13 7 46 25 ZW 1007,8 31 0,0
20.09.2018 14:00:00 16,3 5,9 20 11 54 29 ZW 1007,9 30 0,0
20.09.2018 13:00:00 17,2 6,7 17 9 54 29 WZW 1008,1 28 0,0
20.09.2018 12:00:00 17,9 6,7 18 10 55 30 ZW 1007,9 24 0,0
20.09.2018 11:00:00 16,6 7,8 21 12 55 30 WZW 1007,9 18 0,0
20.09.2018 10:00:00 15,8 7,8 19 10 49 26 ZW 1007,7 21 0,0
20.09.2018 09:00:00 15,1 8,6 16 9 41 22 ZW 1007,2 22 0,0
20.09.2018 08:00:00 14,4 7,4 16 9 52 28 ZW 1006,8 32 0,0
20.09.2018 07:00:00 15,6 8,8 19 10 52 28 ZW 1006,1 49 0,0
20.09.2018 06:00:00 16,5 12,5 18 10 45 24 ZW 1005,9 31 0,0
20.09.2018 05:00:00 16,5 12,1 13 7 39 21 ZZW 1005,7 30 0,0
20.09.2018 04:00:00 16,5 12,1 14 8 34 19 ZZW 1006,1 33 0,0
20.09.2018 03:00:00 16,1 12,1 11 6 34 19 ZZW 1005,9 28 0,0
20.09.2018 02:00:00 16,0 12,4 12 7 31 17 ZZW 1006,4 27 0,0
20.09.2018 01:00:00 16,2 12,4 11 6 31 17 ZZW 1007,1 27 0,0
20.09.2018 00:00:00 - - - - 27 15 - - - -
19.09.2018 23:00:00 16,8 12,1 13 7 33 18 ZW 1008,4 33 0,0
19.09.2018 22:00:00 17,3 12,0 14 7 44 24 ZW 1008,9 30 0,0
19.09.2018 21:00:00 17,5 12,0 16 9 44 24 ZW 1009,2 34 0,0
19.09.2018 20:00:00 18,5 11,8 15 8 33 18 ZW 1008,9 37 0,0
19.09.2018 19:00:00 18,0 11,8 11 6 32 18 ZW 1009,3 33 0,0
19.09.2018 18:00:00 19,7 11,7 12 6 34 18 ZW 1009,2 38 0,0
19.09.2018 17:00:00 20,5 12,2 12 6 47 25 WZW 1009,4 35 0,0
19.09.2018 16:00:00 21,3 11,6 19 11 47 25 WZW 1009,4 38 0,0
19.09.2018 15:00:00 21,5 12,1 16 8 47 25 WZW 1009,1 39 0,0
19.09.2018 14:00:00 20,4 11,9 17 9 47 25 W 1009,5 27 0,0
19.09.2018 13:00:00 20,8 12,0 18 10 45 24 WZW 1008,7 33 0,0
19.09.2018 12:00:00 20,0 11,5 20 11 45 24 WZW 1008,4 27 0,0
19.09.2018 11:00:00 19,1 11,2 20 11 46 25 WZW 1008,1 32 0,0
19.09.2018 10:00:00 18,2 11,0 15 8 49 26 WZW 1008,1 33 0,0
19.09.2018 09:00:00 16,5 11,4 24 13 49 26 W 1007,9 29 0,0
19.09.2018 08:00:00 15,7 13,0 15 8 35 19 WZW 1007,0 24 0,0
19.09.2018 07:00:00 15,2 12,9 13 7 30 16 WZW 1006,6 33 0,0
19.09.2018 06:00:00 15,6 12,7 12 7 29 15 WZW 1006,4 44 0,0
19.09.2018 05:00:00 15,6 12,0 13 7 25 13 ZW 1006,2 47 0,0
19.09.2018 04:00:00 15,8 11,2 11 6 22 12 ZW 1006,4 48 0,0
19.09.2018 03:00:00 14,7 10,1 8 4 18 10 ZW 1006,5 41 0,0
19.09.2018 02:00:00 15,6 10,1 8 5 18 10 ZZW 1006,7 47 0,0
19.09.2018 01:00:00 16,1 10,0 10 5 19 11 ZZW 1006,8 46 0,0
19.09.2018 00:00:00 16,6 9,8 9 5 20 11 ZZW 1006,9 50 0,0
18.09.2018 23:00:00 16,9 9,6 9 5 20 11 ZZW 1007,1 50 0,0
18.09.2018 22:00:00 17,2 9,1 9 5 19 11 ZZW 1007,4 50 0,0
18.09.2018 21:00:00 18,1 8,9 9 5 19 11 Z 1007,5 50 0,0
18.09.2018 20:00:00 18,6 8,6 9 5 18 10 Z 1007,8 50 0,0
18.09.2018 19:00:00 19,7 8,7 9 5 30 16 Z 1007,9 50 0,0
18.09.2018 18:00:00 21,8 8,0 10 6 32 17 ZZW 1007,8 50 0,0
18.09.2018 17:00:00 23,1 7,2 16 8 36 20 ZW 1008,1 50 0,0
18.09.2018 16:00:00 23,4 9,0 15 8 36 20 ZZW 1008,5 45 0,0
18.09.2018 15:00:00 23,2 11,9 12 6 33 18 ZZW 1009,1 40 0,0
18.09.2018 14:00:00 22,7 11,1 16 9 33 18 ZW 1009,8 50 0,0
18.09.2018 13:00:00 21,9 13,5 14 7 33 18 ZW 1010,3 40 0,0
18.09.2018 12:00:00 19,7 13,2 16 8 33 18 WZW 1010,9 41 0,0
18.09.2018 11:00:00 17,5 13,4 11 6 23 13 ZW 1011,3 43 0,0
18.09.2018 10:00:00 15,0 12,3 6 3 14 8 ZZW 1011,8 33 0,0
18.09.2018 09:00:00 12,7 10,8 6 3 13 7 Z 1012,3 26 0,0
18.09.2018 08:00:00 11,6 9,8 6 3 13 7 Z 1012,5 33 0,0
18.09.2018 07:00:00 10,9 9,0 6 3 11 6 Z 1012,8 35 0,0
18.09.2018 06:00:00 10,8 8,7 5 3 11 6 Z 1013,0 38 0,0
18.09.2018 05:00:00 10,4 8,5 5 3 11 6 Z 1013,2 32 0,0
18.09.2018 04:00:00 10,2 8,3 5 3 11 6 ZZO 1013,5 29 0,0
18.09.2018 03:00:00 10,6 8,0 4 2 13 7 ZZW 1013,9 31 0,0
18.09.2018 02:00:00 11,1 8,3 5 3 13 7 ZZW 1014,0 38 0,0
18.09.2018 01:00:00 11,4 8,4 6 3 17 9 ZW 1014,2 36 0,0
18.09.2018 00:00:00 11,9 8,4 7 4 17 9 WZW 1014,2 43 0,0
17.09.2018 23:00:00 11,8 7,5 8 5 21 12 WZW 1014,1 46 0,0
17.09.2018 22:00:00 12,2 6,7 7 4 21 12 WZW 1014,2 46 0,0
17.09.2018 21:00:00 12,2 6,5 10 6 21 12 W 1014,3 42 0,0
17.09.2018 20:00:00 12,0 6,0 9 5 30 16 W 1013,8 45 0,0
17.09.2018 19:00:00 12,9 5,6 12 7 34 18 W 1013,0 50 0,0
17.09.2018 18:00:00 13,6 5,5 14 8 38 20 W 1012,5 50 0,0
17.09.2018 17:00:00 14,5 5,0 18 10 44 24 W 1012,0 46 0,0
17.09.2018 16:00:00 15,3 6,0 20 11 45 24 W 1011,5 48 0,0
17.09.2018 15:00:00 15,4 7,4 18 10 49 26 W 1011,2 39 0,0
17.09.2018 14:00:00 14,6 7,9 15 8 49 26 W 1010,5 50 0,0
17.09.2018 13:00:00 14,4 8,8 18 10 44 24 WZW 1009,9 46 0,0
17.09.2018 12:00:00 13,4 10,8 17 9 46 25 W 1009,5 11 0,0
17.09.2018 11:00:00 14,4 10,6 22 12 46 25 WZW 1008,8 35 0,0
17.09.2018 10:00:00 13,7 11,0 17 9 38 21 WZW 1008,4 38 0,0
17.09.2018 09:00:00 13,4 12,0 15 8 39 21 WZW 1008,1 22 0,0
17.09.2018 08:00:00 13,1 12,0 17 9 37 20 W 1008,0 32 0,0
17.09.2018 07:00:00 13,0 12,7 13 7 26 14 WZW 1007,5 14 0,0
17.09.2018 06:00:00 12,8 12,5 10 6 22 12 ZW 1007,7 4,0 0,0
17.09.2018 05:00:00 12,2 11,9 9 5 20 11 ZW 1008,2 3,4 0,0
17.09.2018 04:00:00 11,6 11,3 9 5 25 14 ZZW 1008,4 1,7 0,0
17.09.2018 03:00:00 11,3 10,8 9 5 29 16 Z 1009,2 1,6 0,0

tt = temperatuur
td = dauwpunt
ff = windsnelheid
fx = windstoten
dd = windrichting
ppp = luchtdruk
vv = zicht
rr = neerslag

Weerstations in de omgeving